Location: Unspecified
(29.9680°N, 0.0000°E)
Time: 17:40:28
(UTC+00:00)

Vanguard 1 Rocket - Pass Details

Date: 18 June 2019
Orbit: 652 x 4224 km, 34.3° (Epoch: 24 August)

Event Time Altitude Azimuth Distance (km) Brightness Sun altitude
Rises 19:52:50 0° 267° (W) 6,256 12.6 -10.0°
Reaches altitude 10° 19:57:50 10° 270° (W) 4,648 11.9 -10.9°
Maximum altitude 20:09:01 66° 351° (N) 1,350 8.4 -12.8°
Drops below altitude 10° 20:14:56 10° 75° (ENE) 2,551 9.4 -13.9°
Enters shadow 20:15:57 - 77° (ENE) 2,928 9.6 -14.0°
